This is the latest recevied weather packets stored in our database for station/object W2GRK-15. If no packets are shown the sender has not sent any weather packets the latest 10 day(s).
| Time | Temp. | Humidity | Pressure | Rain* | Wind** | Luminosity | Snow |
|---|---|---|---|---|---|---|---|
| 1778008346 | 28.89° C | 33% | 1008.8 hPa | 0 mm | - | 607 W/m² | - |
| 1778008104 | 28.89° C | 33% | 1009 hPa | 0 mm | - | 614 W/m² | - |
| 1778007726 | 28.89° C | 36% | 1008.7 hPa | 0 mm | - | 632 W/m² | - |
| 1778007090 | 28.33° C | 36% | 1009 hPa | 0 mm | - | 650 W/m² | - |
| 1778006848 | 28.33° C | 34% | 1009.3 hPa | 0 mm | - | 641 W/m² | - |
| 1778006784 | 28.33° C | 35% | 1009.2 hPa | 0 mm | - | 597 W/m² | - |
| 1778006606 | 28.33° C | 34% | 1009.4 hPa | 0 mm | - | 667 W/m² | - |
| 1778006188 | 28.89° C | 35% | 1009.5 hPa | 0 mm | - | 687 W/m² | - |
| 1778005640 | 28.33° C | 37% | 1009.4 hPa | 0 mm | - | 701 W/m² | - |
| 1778005576 | 27.78° C | 36% | 1009.2 hPa | 0 mm | - | 700 W/m² | - |
| 1778005285 | 28.33° C | 36% | 1009.5 hPa | 0 mm | - | 706 W/m² | - |
| 1778005108 | 28.33° C | 37% | 1009.5 hPa | 0 mm | - | 706 W/m² | - |
| 1778004935 | 28.33° C | 37% | 1009.6 hPa | 0 mm | - | 710 W/m² | - |
| 1778004448 | 28.33° C | 39% | 1009.5 hPa | 0 mm | - | 711 W/m² | - |
| 1778004384 | 28.33° C | 39% | 1009.5 hPa | 0 mm | - | 726 W/m² | - |
| 1778004226 | 27.78° C | 40% | 1009.6 hPa | 0 mm | - | 734 W/m² | - |
| 1778003304 | 27.78° C | 40% | 1009.8 hPa | 0 mm | - | 743 W/m² | - |
| 1778003240 | 27.78° C | 39% | 1009.8 hPa | 0 mm | - | 752 W/m² | - |
| 1778002821 | 28.33° C | 40% | 1009.7 hPa | 0 mm | - | 760 W/m² | - |
| 1778002579 | 28.33° C | 43% | 1009.8 hPa | 0 mm | - | 766 W/m² | - |
| 1778002466 | 27.78° C | 41% | 1009.7 hPa | 0 mm | - | 772 W/m² | - |
| 1778002337 | 27.78° C | 40% | 1009.7 hPa | 0 mm | - | 772 W/m² | - |
| 1778002096 | 27.78° C | 41% | 1009.9 hPa | 0 mm | - | 773 W/m² | - |
| 1778001322 | 27.78° C | 43% | 1009.9 hPa | 0 mm | - | 787 W/m² | - |
| 1778001016 | 27.78° C | 41% | 1009.9 hPa | 0 mm | - | 790 W/m² | - |
* Rain latest hour (hover to see other rain measurements)
** Current wind speed in m/s (hover to see current wind gust speed)